CZ-12B R/B, 69327

Orbit data source: Space-Track

CZ-12B R/B, 69327 is space debris in LEO originally from a launch on Mon, 01 Jun 2026 UTC launched from the Jiuquan Satellite Launch Center, China (JSC). Debris objects in space refer to the collection of defunct objects orbiting the Earth. Examples of debris include non-operational satellites, rocket bodies, and fragments generated from explosions, collisions, or faulty payload assembly.

Loading next visibility...
Identifier
69327, 2026-121C
Orbit
LEO
Country
Flag of CNCN / PRC
Related business
Manufacturer
SAST
Mission
Spacecraft
Bus & Motor
CZ-12 STAGE 2, YF-115
Mass
~6,000 kg wet, ~6,000 kg dry
Launch date (UTC)
2026-06-01 (1 week ago)
Launch vehicle
Unknown
Launch site
Jiuquan Satellite Launch Center, China (JSC)
Object type
Payload
Rocket body
Debris
Shape & HBR
Unknown
Radar Cross Section
Large (>1 m²)

Expand to show TLE details & history
Last TLE update: 6 days ago

TLE from 6 days ago
0 CZ-12B R/B
1 69327U 26121C   26154.97511481  .00000469  00000-0  24140-3 0  9996
2 69327  89.0307 301.8428 0196606  48.9718 312.8273 14.04083962   370
Epoch: 2026-06-03T23:24Z
TLE epoch observation values (Epoch: 2026-06-03T23:24:09.919Z)
Latitude
Longitude
58.37545°
Altitude
787.236 km
Speed
7.509 km/s
True Right ascension
20h 07m 22s
True Declination
0° 00' 00"
Sunlit
Object was in full shadow at epoch
Visualization orbit readout
Latitude
Unknown
Longitude
Unknown
Altitude
Unknown
Speed
Unknown
Apparent Right ascension
Unknown
Apparent Declination
Unknown
Sunlit
N/A
Visualization observer readout
Local Sidereal Time
14:06:12
Azimuth
Unknown
Elevation
Unknown
Doppler factor
Unknown
Orbital elements
Apogee altitude
1,019.293 km
Perigee altitude
734.026 km
Semi-major axis
7,254.797 km
Eccentricity
0.01966
Inclination
89.0307°
RAAN
301.8428°
Arg. of periapsis
48.9718°
True anomaly
311.14717°
Mean anomaly
312.8273°
Eccentric anomaly
311.99004°
Mean motion
3.51241 °/min
Orbital period
102.49 mins
BSTAR
0.0002414
Loading maneuver chart data...
Computing Atmospheric mass density...
Loading historical data...
Loading historical data...
Loading historical data...
Loading historical data...
Loading historical data...
Loading historical data...
Loading historical data...
Other satellites on launch #121 in the year 2026 (2026-06-01 UTC)

Documentation

Showing up to 5 results
|